{"data":{"norad_id":67740,"intl_designator":"2026-026V","name":"STARLINK-36737","alt_names":[],"object_type":"PAYLOAD","status":"ACTIVE","operator":null,"country":"US","launch_date":"2026-02-11","launch_site_code":"AFWTR","launch_vehicle":null,"mission":null,"orbit_class":"UNKNOWN","rcs_meters":null,"size_class":null,"mass_kg":null,"dimensions":null,"purposes":["comms"],"wikipedia_slug":null,"has_3d_model":false,"image_url":null,"decayed_at":null,"tle_current":{"epoch":"2026-05-25T03:06:17.063424Z","epoch_age_seconds":63905,"freshness":"FRESH","line1":"1 67740U 26026V   26145.12936416  .00012054  00000+0  37503-3 0  9992","line2":"2 67740  97.2844 198.7032 0001190  93.1156 267.0223 15.33452003 15842","mean_motion":15.33452003,"eccentricity":0.000119,"inclination_deg":97.2844,"raan_deg":198.7032,"arg_perigee_deg":93.1156,"mean_anomaly_deg":267.0223,"bstar":0.00037503,"rev_number":1584,"period_min":93.905775804057,"perigee_km":464.70794309517,"apogee_km":466.33673401774,"semimajor_km":6843.6593385565,"source":"CELESTRAK","updated_at":"2026-05-25T13:38:21.690556Z"}}}